TimePST,TemperatureF,Dew PointF,Humidity,Sea Level PressureIn,VisibilityMPH,Wind Direction,Wind SpeedMPH,Gust SpeedMPH,PrecipitationIn,Events,Conditions,WindDirDegrees,DateUTC
12:53 AM,39.9,37.9,93,29.78,5.0,North,3.5,-,N/A,,Partly Cloudy,10,2012-12-05 08:53:00
1:02 AM,42.8,39.2,87,29.78,6.0,Calm,Calm,-,N/A,,Partly Cloudy,0,2012-12-05 09:02:00
1:53 AM,39.0,37.0,93,29.81,6.0,Calm,Calm,-,N/A,,Partly Cloudy,0,2012-12-05 09:53:00
2:53 AM,39.0,36.0,89,29.86,8.0,South,3.5,-,N/A,,Scattered Clouds,190,2012-12-05 10:53:00
3:53 AM,42.1,32.0,67,29.91,10.0,Calm,Calm,-,N/A,,Clear,0,2012-12-05 11:53:00
4:53 AM,44.1,24.1,45,29.95,10.0,WNW,20.7,33.4,N/A,,Clear,300,2012-12-05 12:53:00
6:53 AM,42.1,23.0,47,30.03,10.0,West,9.2,-,N/A,,Clear,260,2012-12-05 14:53:00
7:53 AM,39.9,23.0,51,30.06,10.0,WSW,8.1,-,N/A,,Clear,250,2012-12-05 15:53:00
8:53 AM,44.1,24.1,45,30.08,10.0,WSW,5.8,-,N/A,,Scattered Clouds,240,2012-12-05 16:53:00
9:53 AM,48.0,24.1,39,30.11,10.0,West,15.0,-,N/A,,Scattered Clouds,280,2012-12-05 17:53:00
10:53 AM,48.0,26.1,42,30.13,10.0,South,9.2,-,N/A,,Scattered Clouds,180,2012-12-05 18:53:00
11:53 AM,50.0,26.1,39,30.14,10.0,Variable,3.5,-,N/A,,Scattered Clouds,0,2012-12-05 19:53:00
12:53 PM,53.1,26.1,35,30.14,10.0,WNW,17.3,23.0,N/A,,Mostly Cloudy,290,2012-12-05 20:53:00
1:53 PM,53.1,26.1,35,30.14,10.0,WNW,12.7,-,N/A,,Mostly Cloudy,290,2012-12-05 21:53:00
2:53 PM,48.9,26.1,41,30.16,10.0,North,8.1,-,N/A,,Mostly Cloudy,350,2012-12-05 22:53:00
3:53 PM,46.9,27.0,46,30.17,10.0,NNE,6.9,-,N/A,,Mostly Cloudy,30,2012-12-05 23:53:00
4:53 PM,45.0,27.0,49,30.19,10.0,Calm,Calm,-,N/A,,Mostly Cloudy,0,2012-12-06 00:53:00
5:53 PM,41.0,28.0,60,30.21,10.0,Calm,Calm,-,N/A,,Overcast,0,2012-12-06 01:53:00
6:53 PM,34.0,27.0,75,30.21,10.0,West,5.8,-,N/A,,Clear,270,2012-12-06 02:53:00
7:53 PM,37.0,27.0,67,30.21,10.0,WSW,6.9,-,N/A,,Clear,250,2012-12-06 03:53:00
8:53 PM,37.0,27.0,67,30.21,10.0,WSW,5.8,-,N/A,,Clear,240,2012-12-06 04:53:00
9:53 PM,36.0,27.0,70,30.21,10.0,Calm,Calm,-,N/A,,Clear,0,2012-12-06 05:53:00
10:53 PM,35.1,28.0,76,30.20,10.0,Calm,Calm,-,N/A,,Clear,0,2012-12-06 06:53:00
11:53 PM,33.1,27.0,78,30.19,10.0,NW,3.5,-,N/A,,Clear,310,2012-12-06 07:53:00